Wind_Speed
14 17 20 22 23 24 26 27 28 29 31 33 34 34 32 29 28 28 27 28 29 30 30 31 32 34 35 37 39 41 43 45 47 48 50 52 53 54 56 57 58 59 60 61
11 13 16 20 21 23 24 25 27 28 29 30 32 32 32 30 29 28 28 28 28 29 29 30 32 34 36 38 40 41 43 45 46 48 49 51 51 53 55 56 57 58 59 59
7 10 13 16 18 19 23 24 25 27 28 28 28 28 29 29 29 29 30 29 28 28 30 30 32 34 35 37 39 41 43 45 46 48 49 50 51 52 53 54 55 56 56 57
9 10 12 11 13 16 19 21 22 23 24 26 27 27 27 27 28 29 29 30 29 29 29 30 31 32 34 36 38 40 42 43 44 46 48 49 49 50 51 52 52 53 54 54
9 11 12 14 14 15 16 19 21 22 22 23 25 27 28 28 27 27 26 26 26 27 27 29 30 31 33 35 36 38 40 41 42 43 44 45 46 48 49 50 51 51 51 51
9 11 12 13 15 16 17 18 19 20 21 22 23 24 24 24 23 24 25 26 26 27 27 29 31 32 32 34 35 37 38 39 39 41 42 43 45 46 48 48 48 48 47 45
9 10 11 12 13 15 16 18 18 18 20 20 21 22 22 22 22 23 24 24 25 27 28 29 30 31 31 33 34 34 35 36 37 38 40 41 43 43 43 42 41 39 38 37
10 11 12 13 14 15 17 18 18 18 19 19 20 21 21 21 21 21 22 23 25 26 27 27 28 28 29 30 31 31 32 33 34 35 36 38 38 37 36 34 32 31 30 28
12 12 13 14 14 15 16 17 17 17 17 18 18 19 19 19 19 20 22 23 24 24 25 25 26 27 28 28 28 29 29 30 31 32 33 33 32 30 29 28 26 25 23 21
13 14 14 14 14 15 15 16 15 15 15 15 16 16 17 17 18 19 20 20 21 21 22 23 24 25 25 25 25 25 26 27 28 28 29 28 27 25 24 23 22 20 19 17
15 15 15 15 14 15 15 15 14 14 14 13 14 14 15 15 16 16 16 17 18 19 21 22 22 22 22 22 22 22 23 24 24 24 24 23 23 22 20 19 18 17 16 14
15 16 15 15 14 14 14 14 14 13 13 13 13 13 13 13 13 14 15 16 16 17 18 19 20 20 20 19 19 20 20 20 20 20 19 20 19 18 17 16 15 14 13 12
16 16 16 15 15 14 14 13 12 12 11 11 10 10 10 10 11 12 13 13 14 16 17 18 18 17 16 17 17 17 17 17 17 17 17 16 16 16 15 15 14 13 12 11
16 17 16 16 15 14 13 12 12 11 10 9 8 8 8 9 10 10 11 13 14 16 17 17 16 14 14 14 15 15 15 15 14 15 15 14 14 14 14 13 13 12 11 11
16 16 16 15 14 13 13 12 11 10 9 7 7 7 7 8 9 10 12 13 14 16 16 15 14 13 13 13 14 14 14 13 13 13 13 13 13 13 13 12 12 11 11 11
16 16 15 14 14 13 13 12 10 9 8 6 6 6 7 8 9 10 12 13 14 15 15 15 14 13 12 13 13 14 13 12 12 12 11 11 11 11 11 10 10 11 11 11
16 16 15 14 14 13 12 11 9 8 7 6 6 6 7 8 9 11 12 13 14 14 15 15 14 13 12 13 13 13 13 12 11 10 10 9 9 9 9 9 10 10 10 10
15 15 15 14 13 12 11 9 8 7 6 5 6 7 8 8 10 11 13 13 14 14 15 15 15 14 13 13 13 13 12 11 10 9 9 8 8 9 9 9 9 9 9 9
15 15 14 14 13 11 10 8 7 6 5 5 6 7 8 9 10 11 13 14 14 14 15 16 16 16 15 14 14 13 12 11 9 8 8 7 7 7 8 8 8 8 8 8
14 14 13 13 12 11 9 7 6 5 5 5 6 7 8 9 10 12 13 14 14 15 16 16 17 17 16 15 14 14 12 11 10 9 8 7 7 6 6 6 6 7 7 7
13 13 12 12 11 9 8 6 5 4 5 5 6 6 7 9 11 13 14 15 15 16 16 17 17 17 16 15 15 15 13 12 11 10 9 7 6 6 5 5 5 6 6 6
13 12 11 10 9 8 7 5 4 4 4 5 5 6 7 9 11 12 14 15 16 16 17 17 17 17 16 16 16 16 15 14 12 11 9 8 6 6 6 5 5 6 6 6
12 11 10 9 8 6 5 4 3 3 3 4 4 5 7 8 10 12 13 15 16 17 18 18 17 17 17 18 18 17 16 16 14 12 11 9 8 7 6 6 6 6 6 6
11 10 9 8 7 5 4 3 2 2 2 2 3 5 6 8 9 11 12 14 16 18 18 19 18 17 18 18 18 18 18 17 16 14 13 11 10 9 8 7 7 7 7 7
10 10 9 8 6 4 3 2 2 1 1 1 2 3 5 7 8 10 12 13 15 17 18 18 18 18 18 19 19 18 18 18 17 16 16 14 13 12 11 10 9 9 9 9
10 9 9 7 6 4 3 2 2 2 1 1 0 1 3 5 7 9 11 13 15 16 16 17 17 17 18 19 19 19 18 18 18 17 16 16 15 14 13 12 11 11 11 11
10 10 9 8 6 5 4 4 3 3 3 2 2 1 1 2 4 7 9 10 12 13 14 15 15 16 18 19 19 19 18 17 17 17 17 16 16 15 14 14 13 13 13 13
Wind_Direction
216 218 218 222 225 225 229 231 234 234 242 248 254 260 267 271 274 274 275 271 268 265 263 264 267 270 273 275 277 278 279 279 280 281 282 283 284 285 286 287 288 288 288 288
233 228 224 225 229 230 233 237 237 240 246 250 255 260 265 271 274 273 271 271 270 270 270 270 272 274 275 277 278 279 280 281 283 285 286 287 287 288 288 288 289 289 289 289
250 244 235 236 236 240 239 240 244 247 252 256 262 267 271 273 274 278 279 280 279 279 279 279 279 279 280 281 281 282 283 285 286 287 288 289 290 291 291 291 291 290 290 290
261 264 262 257 253 255 255 254 256 257 258 262 268 272 276 280 281 285 286 284 282 284 283 282 283 282 282 282 283 285 286 288 289 290 291 292 292 292 293 293 292 292 291 291
280 274 276 280 280 273 273 270 270 269 267 265 269 274 277 280 282 284 284 285 285 286 288 286 284 285 287 288 289 291 292 294 295 295 296 296 295 295 295 294 294 294 293 292
301 295 290 293 293 293 288 284 279 277 277 275 276 278 280 281 280 279 280 283 287 289 288 288 287 288 290 293 295 296 296 297 298 298 298 299 299 298 298 297 297 297 296 295
315 309 307 302 298 298 297 293 289 285 283 282 281 281 283 284 283 285 285 285 286 288 289 289 292 294 295 297 298 299 300 301 302 302 303 303 303 303 303 303 302 302 301 300
326 321 316 312 307 303 298 295 293 290 286 283 282 283 285 285 285 285 286 287 288 291 292 293 295 297 298 299 300 302 303 304 305 307 308 309 310 310 310 311 310 309 308 308
334 326 320 315 309 304 299 298 296 294 292 288 286 285 287 287 287 287 287 289 291 293 295 297 299 300 301 302 304 305 307 309 311 313 315 316 318 319 319 319 318 318 319 319
336 331 326 321 316 309 306 305 304 300 297 292 289 289 289 289 289 290 292 294 295 297 299 300 302 303 305 307 309 311 312 315 317 319 322 324 325 327 327 327 328 328 330 331
338 333 330 327 323 318 316 313 310 307 302 296 293 291 291 292 294 295 297 299 300 303 304 306 307 308 310 312 313 315 318 321 324 327 330 332 334 335 335 336 337 339 341 343
339 337 334 331 327 323 321 318 316 313 306 299 295 295 296 296 298 300 302 305 308 310 311 312 313 313 315 317 318 320 323 327 330 334 337 338 340 342 345 346 349 352 357 3
342 340 337 334 332 329 326 325 323 320 315 310 305 303 304 306 309 312 314 316 318 319 321 321 320 319 319 321 324 327 330 334 336 340 343 345 348 351 353 355 359 4 11 18
344 342 340 338 336 334 333 331 329 329 325 320 316 317 318 319 322 324 327 328 329 330 330 329 327 325 325 329 331 332 335 338 341 345 348 350 353 355 359 3 7 12 21 31
346 345 344 342 341 340 338 337 335 337 337 334 332 334 334 334 336 337 337 337 338 338 338 339 336 333 332 334 336 338 341 342 342 343 346 351 356 1 5 10 16 23 32 40
348 348 347 346 344 343 341 340 340 343 347 348 350 351 350 348 347 346 347 347 347 349 351 351 348 345 343 343 343 344 343 342 342 342 346 353 360 7 13 20 27 33 40 47
348 348 348 347 346 346 345 345 347 351 357 2 3 3 359 358 359 358 358 357 357 359 358 357 357 356 355 352 351 349 347 345 344 345 349 358 7 14 21 29 35 40 46 53
349 349 348 348 349 350 351 353 356 3 11 12 10 8 9 11 10 7 5 5 5 4 3 4 5 4 1 358 356 355 354 354 353 353 356 3 12 19 25 32 38 44 50 58
349 349 349 350 351 352 355 358 4 13 19 18 16 17 19 18 14 13 12 12 10 9 9 11 13 12 8 5 4 3 4 4 3 4 7 13 20 24 28 33 40 46 53 60
346 347 348 351 353 356 358 4 13 22 25 24 25 28 27 23 21 20 18 16 15 15 14 15 16 15 15 15 14 13 13 13 13 14 15 17 21 27 32 37 43 48 54 61
343 346 347 350 354 358 1 9 20 29 30 29 31 33 32 30 27 23 21 20 19 18 18 18 18 17 18 19 20 20 20 20 21 21 21 23 27 32 36 40 46 53 60 65
340 343 345 348 353 359 4 12 22 29 32 34 36 35 36 34 29 26 24 23 22 22 22 22 21 23 25 25 25 25 25 25 26 28 29 33 37 41 45 50 55 59 66 69
336 339 341 344 349 356 3 11 18 26 31 36 39 39 38 34 29 26 26 27 27 27 28 28 27 28 30 30 30 31 30 30 32 35 37 40 45 50 54 58 62 64 68 70
331 335 337 339 342 347 355 -0 7 15 25 34 40 40 38 34 29 28 30 31 32 32 32 32 32 32 32 32 33 34 35 37 39 42 45 49 53 58 60 64 69 71 70 71
322 326 328 329 329 329 331 331 328 335 353 20 33 37 38 37 33 32 34 35 35 34 34 33 31 31 32 34 35 37 39 42 45 48 51 54 57 60 63 67 71 73 73 72
314 315 317 317 314 308 302 292 278 268 268 274 360 28 33 34 33 32 34 35 35 34 32 31 32 33 35 37 38 40 42 44 47 49 52 54 57 60 63 66 69 71 73 73
303 304 303 301 297 291 280 268 258 247 242 241 233 244 15 28 29 31 35 35 34 32 31 33 35 36 38 39 39 41 42 45 47 50 53 55 58 60 63 66 69 72 74 75
Height
5756 5757 5758 5760 5761 5763 5766 5768 5770 5771 5772 5772 5773 5773 5773 5772 5772 5772 5772 5772 5771 5771 5771 5771 5770 5770 5769 5768 5766 5764 5761 5758 5755 5752 5748 5744 5740 5736 5732 5727 5723 5718 5712 5707
5754 5755 5756 5757 5759 5760 5761 5763 5764 5765 5766 5766 5766 5766 5766 5766 5766 5766 5765 5764 5763 5763 5762 5762 5761 5761 5759 5757 5755 5753 5750 5747 5743 5740 5736 5732 5727 5723 5718 5713 5708 5702 5697 5691
5753 5753 5754 5755 5755 5756 5757 5758 5759 5760 5761 5760 5760 5760 5760 5760 5759 5758 5758 5756 5755 5755 5754 5754 5753 5751 5749 5747 5744 5742 5738 5735 5731 5728 5723 5719 5714 5709 5704 5699 5693 5687 5681 5675
5751 5752 5751 5754 5752 5753 5753 5753 5754 5754 5754 5753 5754 5753 5753 5753 5752 5752 5750 5749 5748 5747 5746 5745 5743 5741 5739 5737 5734 5731 5727 5724 5719 5715 5711 5706 5701 5696 5690 5684 5678 5672 5666 5659
5749 5749 5749 5749 5749 5749 5749 5749 5749 5748 5747 5747 5747 5747 5747 5746 5745 5744 5743 5742 5740 5739 5738 5736 5734 5732 5729 5727 5724 5720 5717 5713 5708 5703 5698 5693 5688 5682 5676 5670 5664 5657 5651 5644
5747 5747 5747 5748 5746 5745 5745 5744 5743 5742 5741 5741 5740 5740 5740 5739 5738 5737 5736 5734 5733 5731 5729 5728 5725 5723 5720 5717 5714 5710 5706 5702 5697 5692 5687 5681 5675 5669 5663 5656 5649 5643 5636 5630
5745 5744 5743 5743 5742 5741 5741 5740 5737 5736 5735 5734 5734 5734 5733 5732 5731 5730 5728 5727 5726 5724 5722 5719 5717 5714 5711 5708 5704 5700 5696 5691 5687 5682 5676 5670 5663 5657 5650 5643 5637 5630 5624 5619
5743 5742 5742 5739 5738 5737 5736 5733 5732 5730 5729 5729 5728 5727 5726 5725 5724 5723 5722 5720 5718 5716 5714 5712 5709 5706 5703 5699 5696 5691 5687 5682 5678 5672 5666 5660 5653 5646 5640 5633 5627 5622 5616 5611
5741 5741 5737 5735 5733 5732 5730 5728 5726 5725 5724 5723 5722 5721 5720 5719 5718 5717 5716 5714 5712 5710 5707 5704 5701 5698 5695 5692 5688 5684 5679 5674 5669 5664 5658 5651 5645 5638 5632 5626 5621 5615 5610 5605
5738 5735 5733 5731 5729 5727 5725 5723 5721 5720 5718 5717 5716 5715 5714 5713 5712 5711 5709 5707 5705 5703 5700 5698 5695 5691 5688 5684 5680 5676 5672 5667 5662 5656 5650 5645 5639 5633 5627 5622 5617 5612 5607 5603
5735 5732 5730 5727 5725 5723 5720 5718 5716 5715 5713 5712 5711 5710 5709 5708 5707 5705 5704 5702 5700 5697 5694 5691 5688 5685 5681 5678 5674 5670 5666 5661 5656 5651 5646 5640 5635 5630 5624 5619 5615 5610 5606 5602
5733 5730 5727 5725 5722 5719 5717 5715 5713 5711 5709 5708 5707 5706 5704 5703 5702 5701 5699 5697 5695 5692 5689 5686 5682 5679 5675 5672 5669 5665 5661 5657 5652 5647 5643 5638 5633 5628 5623 5619 5614 5610 5606 5602
5730 5727 5724 5721 5719 5716 5714 5711 5709 5707 5706 5704 5703 5702 5701 5700 5698 5697 5695 5693 5690 5687 5684 5681 5677 5674 5671 5668 5665 5661 5657 5653 5649 5645 5641 5637 5632 5628 5623 5619 5615 5611 5608 5604
5727 5724 5721 5718 5716 5713 5711 5709 5707 5705 5703 5701 5700 5699 5698 5697 5696 5694 5692 5689 5687 5684 5680 5677 5673 5670 5667 5664 5661 5658 5654 5651 5647 5644 5640 5636 5632 5628 5624 5620 5617 5613 5610 5607
5725 5722 5719 5716 5713 5711 5709 5707 5705 5703 5701 5699 5698 5697 5696 5695 5693 5692 5689 5687 5684 5681 5677 5674 5670 5667 5664 5661 5659 5655 5652 5649 5646 5643 5639 5636 5632 5629 5625 5621 5618 5615 5612 5610
5723 5720 5717 5715 5712 5709 5707 5705 5703 5701 5700 5698 5697 5696 5695 5694 5692 5690 5688 5685 5682 5679 5675 5672 5668 5665 5662 5659 5656 5653 5650 5647 5644 5642 5639 5636 5632 5629 5626 5623 5620 5618 5615 5613
5721 5718 5715 5713 5711 5708 5706 5704 5702 5701 5699 5698 5697 5696 5695 5693 5691 5689 5687 5684 5681 5678 5674 5671 5667 5664 5661 5658 5655 5651 5648 5645 5643 5640 5638 5635 5633 5630 5628 5625 5623 5620 5618 5616
5720 5717 5714 5712 5709 5707 5705 5703 5702 5700 5699 5698 5697 5696 5694 5693 5691 5689 5686 5684 5680 5678 5674 5671 5667 5663 5660 5657 5654 5650 5647 5644 5642 5639 5637 5635 5633 5631 5629 5627 5625 5623 5621 5620
5718 5716 5713 5711 5708 5706 5704 5703 5701 5700 5699 5699 5698 5696 5695 5693 5692 5689 5687 5684 5681 5678 5674 5671 5667 5663 5660 5656 5653 5650 5647 5644 5641 5639 5637 5635 5634 5632 5630 5629 5627 5626 5624 5623
5717 5715 5712 5710 5708 5706 5704 5703 5701 5701 5700 5699 5698 5697 5696 5694 5692 5690 5687 5684 5681 5678 5675 5671 5667 5664 5660 5657 5653 5650 5647 5644 5642 5639 5637 5636 5634 5633 5632 5630 5629 5628 5626 5625
5715 5713 5711 5709 5707 5705 5704 5703 5702 5701 5701 5700 5699 5698 5696 5695 5693 5691 5688 5685 5682 5679 5675 5672 5668 5665 5661 5658 5654 5651 5648 5645 5642 5640 5638 5637 5635 5634 5633 5632 5631 5629 5628 5628
5714 5712 5710 5708 5706 5705 5704 5703 5702 5702 5701 5700 5699 5698 5697 5696 5694 5692 5690 5687 5684 5680 5676 5673 5669 5666 5663 5660 5656 5653 5649 5646 5644 5641 5639 5638 5636 5635 5634 5633 5632 5631 5630 5630
5712 5710 5709 5707 5706 5705 5704 5703 5703 5702 5702 5701 5700 5699 5698 5697 5695 5694 5691 5689 5685 5682 5678 5675 5672 5669 5665 5662 5659 5655 5652 5648 5645 5643 5641 5639 5638 5637 5636 5635 5634 5633 5632 5632
5710 5708 5707 5706 5705 5704 5703 5703 5703 5702 5702 5701 5701 5700 5699 5698 5697 5695 5693 5690 5687 5684 5681 5678 5675 5672 5669 5665 5662 5658 5655 5651 5648 5645 5643 5641 5640 5639 5638 5637 5636 5635 5635 5634
5708 5707 5706 5705 5704 5703 5703 5702 5702 5702 5702 5702 5701 5701 5700 5699 5698 5696 5694 5692 5689 5687 5684 5681 5678 5675 5672 5669 5665 5662 5659 5656 5653 5650 5648 5646 5644 5642 5641 5640 5639 5638 5637 5637
5705 5705 5704 5703 5702 5702 5702 5701 5701 5702 5702 5701 5701 5701 5700 5700 5699 5697 5695 5693 5691 5689 5687 5684 5682 5679 5676 5672 5669 5666 5663 5660 5658 5655 5653 5650 5648 5647 5645 5644 5643 5642 5641 5640
5703 5702 5701 5701 5701 5700 5700 5700 5700 5700 5701 5701 5701 5701 5700 5700 5699 5698 5697 5695 5694 5692 5690 5688 5685 5682 5679 5676 5673 5670 5667 5665 5662 5660 5658 5655 5653 5651 5650 5648 5647 5646 5645 5644